Location: Proctor
(47.8934°N, 114.3048°W)
Time: 16:48:27
(UTC+00:00)

Transit 4A - Pass Details

Date: 13 May 2025
Orbit: 866 x 975 km, 66.8° (Epoch: 13 June)

Event Time Altitude Azimuth Distance (km) Brightness Sun altitude
Rises 10:38:23 0° 326° (NW) 3,612 11.1 -11.8°
Reaches altitude 10° 10:41:17 10° 337° (NNW) 2,647 10.6 -11.5°
Maximum altitude 10:46:42 31° 38° (NE) 1,551 10.0 -10.8°
Drops below altitude 10° 10:51:56 10° 100° (E) 2,570 10.8 -10.2°
Sets 10:54:42 0° 110° (ESE) 3,491 11.3 -9.8°
